STARLINK-30908, 58424

Orbit data source: Space-Track

STARLINK-30908, 58424 is a payload satellite owned by SpaceX/Seattle (US) in LEO that was launched on Wed, 22 Nov 2023 UTC via an FALCON 9 launch vehicle from the Air Force Eastern Test Range (AFETR). Payload-class satellites include a variety of spacecraft equipped with specific instruments for various scientific and technological missions. These include communications satellites like Starlink; space stations such as the ISS; scientific satellites like the Hubble; Earth observation satellites from companies like Planet Labs, Umbra, and HawkEye 360; GPS; miniature CubeSats for education and research; and military/defense satellites.

Loading next visibility...
Identifier
58424, 2023-180Y
Orbit
LEO
Country
Flag of USUS
Related business
Manufacturer
SpaceX/Seattle
Mission
Operational Commercial Communications
Bus & Motor
STARLINK V2M, Unknown motor
Mass
730 kg wet, ~700 kg dry
Launch date (UTC)
2023-11-22 (3 years ago)
Launch vehicle
FALCON 9
Launch site
Air Force Eastern Test Range (AFETR)
Object type
Payload
Rocket body
Debris
Shape & HBR
Box + 2 Pan, 17.7 m
Radar Cross Section
33.884 m², Large (>1 m²)

Expand to show TLE details & history
Last TLE update: 2 days ago

TLE from 2 days ago
0 STARLINK-30908
1 58424U 23180Y   26171.12766694  .00001614  00000-0  68177-4 0  9990
2 58424  43.0037 193.8494 0001704 275.3897  84.6760 15.27580398143291
Epoch: 2026-06-20T03:03Z
TLE epoch observation values (Epoch: 2026-06-20T03:03:50.423Z)
Latitude
-0.00004°
Longitude
-120.45749°
Altitude
482.715 km
Speed
7.626 km/s
True Right ascension
12h 55m 23s
True Declination
0° 00' 00"
Sunlit
Object was in daylight at epoch
Visualization orbit readout
Latitude
Unknown
Longitude
Unknown
Altitude
Unknown
Speed
Unknown
Apparent Right ascension
Unknown
Apparent Declination
Unknown
Sunlit
N/A
Visualization observer readout
Local Sidereal Time
23:07:24
Azimuth
Unknown
Elevation
Unknown
Doppler factor
Unknown
Orbital elements
Apogee altitude
486.162 km
Perigee altitude
483.823 km
Semi-major axis
6,863.129 km
Eccentricity
0.00017
Inclination
43.0037°
RAAN
193.8494°
Arg. of periapsis
275.3897°
True anomaly
84.69544°
Mean anomaly
84.676°
Eccentric anomaly
84.68572°
Mean motion
3.81733 °/min
Orbital period
94.31 mins
BSTAR
0.000068177
Loading maneuver chart data...
Computing Atmospheric mass density...
Loading historical data...
Loading historical data...
Loading historical data...
Loading historical data...
Loading historical data...
Loading historical data...
Loading historical data...

Documentation

Showing up to 5 results
|